Tracking 25612 objects as of 20-May-2022
HD Live streaming from Space Station
objects crossing your sky now

ARIANE 5 DEB (SYLDA)

Track ARIANE 5 DEB (SYLDA) now!


NORAD ID: 44037
Int'l Code: 2019-007D
Perigee: 248.8 km
Apogee: 35,249.6 km
Inclination: 2.5 °
Period: 621.3 minutes
Semi major axis: 24120 km
RCS: Unknown
Launch date: February 5, 2019
Source: France (FR)
Launch site: FRENCH GUIANA (FRGUI)

Note: This is SATELLITE DEBRIS
aabbcc
Your satellite tracking list
Your tracking list is empty




NASA's NSSDC Master Catalog

Two Line Element Set (TLE):
1 44037U 19007D   22139.07940271  .00007282  00000-0  17005-2 0  9996
2 44037   2.5349 124.5181 7255512 106.2340 338.7147  2.31756710 27451
Source of the keplerian elements: AFSPC